Year,Month,Day,Hour,Minute,Value (Times are PST for temperature in C)
2017,03,19,00,00,1.70
2017,03,19,00,01,1.70
2017,03,19,00,02,1.80
2017,03,19,00,03,1.80
2017,03,19,00,04,1.80
2017,03,19,00,05,1.90
2017,03,19,00,06,1.90
2017,03,19,00,07,1.90
2017,03,19,00,08,2.00
2017,03,19,00,09,2.00
2017,03,19,00,10,2.00
2017,03,19,00,11,2.00
2017,03,19,00,12,1.90
2017,03,19,00,13,1.90
2017,03,19,00,14,1.90
2017,03,19,00,15,1.80
2017,03,19,00,16,1.80
2017,03,19,00,17,1.80
2017,03,19,00,18,1.80
2017,03,19,00,19,1.70
2017,03,19,00,20,1.70
2017,03,19,00,21,1.60
2017,03,19,00,22,1.60
2017,03,19,00,23,1.50
2017,03,19,00,24,1.50
2017,03,19,00,25,1.40
2017,03,19,00,26,1.30
2017,03,19,00,27,1.30
2017,03,19,00,28,1.30
2017,03,19,00,29,1.20
2017,03,19,00,30,1.20
2017,03,19,00,31,1.20
2017,03,19,00,32,1.10
2017,03,19,00,33,1.10
2017,03,19,00,34,1.10
2017,03,19,00,35,1.10
2017,03,19,00,36,1.10
2017,03,19,00,37,1.10
2017,03,19,00,38,1.20
2017,03,19,00,39,1.20
2017,03,19,00,40,1.20
2017,03,19,00,41,1.20
2017,03,19,00,42,1.20
2017,03,19,00,43,1.20
2017,03,19,00,44,1.30
2017,03,19,00,45,1.30
2017,03,19,00,46,1.30
2017,03,19,00,47,1.20
2017,03,19,00,48,1.20
2017,03,19,00,49,1.20
2017,03,19,00,50,1.20
2017,03,19,00,51,1.20
2017,03,19,00,52,1.30
2017,03,19,00,53,1.30
2017,03,19,00,54,1.40
2017,03,19,00,55,1.40
2017,03,19,00,56,1.40
2017,03,19,00,57,1.40
2017,03,19,00,58,1.30
2017,03,19,00,59,1.30
2017,03,19,01,00,1.20
2017,03,19,01,01,1.20
2017,03,19,01,02,1.20
2017,03,19,01,03,1.20
2017,03,19,01,04,1.10
2017,03,19,01,05,1.10
2017,03,19,01,06,1.00
2017,03,19,01,07,1.00
2017,03,19,01,08,1.00
2017,03,19,01,09,1.00
2017,03,19,01,10,0.90
2017,03,19,01,11,0.90
2017,03,19,01,12,0.90
2017,03,19,01,13,0.80
2017,03,19,01,14,0.80
2017,03,19,01,15,0.80
2017,03,19,01,16,0.70
2017,03,19,01,17,0.70
2017,03,19,01,18,0.60
2017,03,19,01,19,0.60
2017,03,19,01,20,0.60
2017,03,19,01,21,0.50
2017,03,19,01,22,0.50
2017,03,19,01,23,0.40
2017,03,19,01,24,0.40
2017,03,19,01,25,0.40
2017,03,19,01,26,0.40
2017,03,19,01,27,0.30
2017,03,19,01,28,0.30
2017,03,19,01,29,0.30
2017,03,19,01,30,0.20
2017,03,19,01,31,0.20
2017,03,19,01,32,0.20
2017,03,19,01,33,0.10
2017,03,19,01,34,0.10
2017,03,19,01,35,0.10
2017,03,19,01,36,0.00
2017,03,19,01,37,0.00
2017,03,19,01,38,0.00
2017,03,19,01,39,0.00
2017,03,19,01,40,-0.10
2017,03,19,01,41,-0.10
2017,03,19,01,42,-0.10
2017,03,19,01,43,-0.10
2017,03,19,01,44,-0.20
2017,03,19,01,45,-0.20
2017,03,19,01,46,-0.20
2017,03,19,01,47,-0.20
2017,03,19,01,48,-0.20
2017,03,19,01,49,-0.30
2017,03,19,01,50,-0.30
2017,03,19,01,51,-0.30
2017,03,19,01,52,-0.30
2017,03,19,01,53,-0.40
2017,03,19,01,54,-0.40
2017,03,19,01,55,-0.40
2017,03,19,01,56,-0.40
2017,03,19,01,57,-0.40
2017,03,19,01,58,-0.40
2017,03,19,01,59,-0.40
2017,03,19,02,00,-0.40
2017,03,19,02,01,-0.50
2017,03,19,02,02,-0.50
2017,03,19,02,03,-0.50
2017,03,19,02,04,-0.60
2017,03,19,02,05,-0.60
2017,03,19,02,06,-0.60
2017,03,19,02,07,-0.60
2017,03,19,02,08,-0.70
2017,03,19,02,09,-0.70
2017,03,19,02,10,-0.70
2017,03,19,02,11,-0.70
2017,03,19,02,12,-0.70
2017,03,19,02,13,-0.80
2017,03,19,02,14,-0.80
2017,03,19,02,15,-0.80
2017,03,19,02,16,-0.80
2017,03,19,02,17,-0.80
2017,03,19,02,18,-0.80
2017,03,19,02,19,-0.90
2017,03,19,02,20,-0.90
2017,03,19,02,21,-0.90
2017,03,19,02,22,-0.90
2017,03,19,02,23,-0.90
2017,03,19,02,24,-0.90
2017,03,19,02,25,-0.90
2017,03,19,02,26,-0.90
2017,03,19,02,27,-1.00
2017,03,19,02,28,-1.00
2017,03,19,02,29,-1.00
2017,03,19,02,30,-1.00
2017,03,19,02,31,-1.00
2017,03,19,02,32,-1.00
2017,03,19,02,33,-1.00
2017,03,19,02,34,-1.10
2017,03,19,02,35,-1.10
2017,03,19,02,36,-1.10
2017,03,19,02,37,-1.10
2017,03,19,02,38,-1.10
2017,03,19,02,39,-1.20
2017,03,19,02,40,-1.10
2017,03,19,02,41,-1.20
2017,03,19,02,42,-1.20
2017,03,19,02,43,-1.20
2017,03,19,02,44,-1.20
2017,03,19,02,45,-1.20
2017,03,19,02,46,-1.20
2017,03,19,02,47,-1.20
2017,03,19,02,48,-1.20
2017,03,19,02,49,-1.20
2017,03,19,02,50,-1.20
2017,03,19,02,51,-1.20
2017,03,19,02,52,-1.20
2017,03,19,02,53,-1.20
2017,03,19,02,54,-1.20
2017,03,19,02,55,-1.20
2017,03,19,02,56,-1.20
2017,03,19,02,57,-1.20
2017,03,19,02,58,-1.20
2017,03,19,02,59,-1.20
2017,03,19,03,00,-1.20
2017,03,19,03,01,-1.30
2017,03,19,03,02,-1.30
2017,03,19,03,03,-1.30
2017,03,19,03,04,-1.30
2017,03,19,03,05,-1.30
2017,03,19,03,06,-1.30
2017,03,19,03,07,-1.30
2017,03,19,03,08,-1.30
2017,03,19,03,09,-1.30
2017,03,19,03,10,-1.30
2017,03,19,03,11,-1.30
2017,03,19,03,12,-1.30
2017,03,19,03,13,-1.30
2017,03,19,03,14,-1.30
2017,03,19,03,15,-1.30
2017,03,19,03,16,-1.30
2017,03,19,03,17,-1.30
2017,03,19,03,18,-1.30
2017,03,19,03,19,-1.30
2017,03,19,03,20,-1.30
2017,03,19,03,21,-1.30
2017,03,19,03,22,-1.40
2017,03,19,03,23,-1.40
2017,03,19,03,24,-1.40
2017,03,19,03,25,-1.40
2017,03,19,03,26,-1.40
2017,03,19,03,27,-1.40
2017,03,19,03,28,-1.40
2017,03,19,03,29,-1.40
2017,03,19,03,30,-1.40
2017,03,19,03,31,-1.40
2017,03,19,03,32,-1.40
2017,03,19,03,33,-1.40
2017,03,19,03,34,-1.40
2017,03,19,03,35,-1.40
2017,03,19,03,36,-1.40
2017,03,19,03,37,-1.40
2017,03,19,03,38,-1.40
2017,03,19,03,39,-1.40
2017,03,19,03,40,-1.40
2017,03,19,03,41,-1.40
2017,03,19,03,42,-1.40
2017,03,19,03,43,-1.40
2017,03,19,03,44,-1.40
2017,03,19,03,45,-1.50
2017,03,19,03,46,-1.50
2017,03,19,03,47,-1.50
2017,03,19,03,48,-1.50
2017,03,19,03,49,-1.50
2017,03,19,03,50,-1.50
2017,03,19,03,51,-1.50
2017,03,19,03,52,-1.50
2017,03,19,03,53,-1.50
2017,03,19,03,54,-1.50
2017,03,19,03,55,-1.50
2017,03,19,03,56,-1.50
2017,03,19,03,57,-1.50
2017,03,19,03,58,-1.50
2017,03,19,03,59,-1.50
2017,03,19,04,00,-1.50
2017,03,19,04,01,-1.50
2017,03,19,04,02,-1.50
2017,03,19,04,03,-1.50
2017,03,19,04,04,-1.50
2017,03,19,04,05,-1.50
2017,03,19,04,06,-1.50
2017,03,19,04,07,-1.50
2017,03,19,04,08,-1.50
2017,03,19,04,09,-1.50
2017,03,19,04,10,-1.50
2017,03,19,04,11,-1.50
2017,03,19,04,12,-1.50
2017,03,19,04,13,-1.50
2017,03,19,04,14,-1.50
2017,03,19,04,15,-1.50
2017,03,19,04,16,-1.50
2017,03,19,04,17,-1.40
2017,03,19,04,18,-1.40
2017,03,19,04,19,-1.40
2017,03,19,04,20,-1.40
2017,03,19,04,21,-1.40
2017,03,19,04,22,-1.40
2017,03,19,04,23,-1.40
2017,03,19,04,24,-1.40
2017,03,19,04,25,-1.40
2017,03,19,04,26,-1.50
2017,03,19,04,27,-1.50
2017,03,19,04,28,-1.50
2017,03,19,04,29,-1.50
2017,03,19,04,30,-1.50
2017,03,19,04,31,-1.50
2017,03,19,04,32,-1.50
2017,03,19,04,33,-1.60
2017,03,19,04,34,-1.60
2017,03,19,04,35,-1.60
2017,03,19,04,36,-1.60
2017,03,19,04,37,-1.60
2017,03,19,04,38,-1.60
2017,03,19,04,39,-1.60
2017,03,19,04,40,-1.60
2017,03,19,04,41,-1.70
2017,03,19,04,42,-1.70
2017,03,19,04,43,-1.70
2017,03,19,04,44,-1.70
2017,03,19,04,45,-1.70
2017,03,19,04,46,-1.70
2017,03,19,04,47,-1.70
2017,03,19,04,48,-1.70
2017,03,19,04,49,-1.70
2017,03,19,04,50,-1.70
2017,03,19,04,51,-1.70
2017,03,19,04,52,-1.70
2017,03,19,04,53,-1.70
2017,03,19,04,54,-1.70
2017,03,19,04,55,-1.70
2017,03,19,04,56,-1.70
2017,03,19,04,57,-1.70
2017,03,19,04,58,-1.70
2017,03,19,04,59,-1.70
2017,03,19,05,00,-1.70
2017,03,19,05,01,-1.80
2017,03,19,05,02,-1.80
2017,03,19,05,03,-1.80
2017,03,19,05,04,-1.80
2017,03,19,05,05,-1.80
2017,03,19,05,06,-1.80
2017,03,19,05,07,-1.80
2017,03,19,05,08,-1.80
2017,03,19,05,09,-1.80
2017,03,19,05,10,-1.80
2017,03,19,05,11,-1.80
2017,03,19,05,12,-1.80
2017,03,19,05,13,-1.80
2017,03,19,05,14,-1.80
2017,03,19,05,15,-1.80
2017,03,19,05,16,-1.80
2017,03,19,05,17,-1.80
2017,03,19,05,18,-1.80
2017,03,19,05,19,-1.80
2017,03,19,05,20,-1.80
2017,03,19,05,21,-1.80
2017,03,19,05,22,-1.80
2017,03,19,05,23,-1.80
2017,03,19,05,24,-1.80
2017,03,19,05,25,-1.80
2017,03,19,05,26,-1.80
2017,03,19,05,27,-1.80
2017,03,19,05,28,-1.80
2017,03,19,05,29,-1.80
2017,03,19,05,30,-1.80
2017,03,19,05,31,-1.80
2017,03,19,05,32,-1.80
2017,03,19,05,33,-1.80
2017,03,19,05,34,-1.80
2017,03,19,05,35,-1.80
2017,03,19,05,36,-1.80
2017,03,19,05,37,-1.80
2017,03,19,05,38,-1.80
2017,03,19,05,39,-1.80
2017,03,19,05,40,-1.80
2017,03,19,05,41,-1.70
2017,03,19,05,42,-1.70
2017,03,19,05,43,-1.70
2017,03,19,05,44,-1.70
2017,03,19,05,45,-1.70
2017,03,19,05,46,-1.70
2017,03,19,05,47,-1.70
2017,03,19,05,48,-1.60
2017,03,19,05,49,-1.60
2017,03,19,05,50,-1.70
2017,03,19,05,51,-1.70
2017,03,19,05,52,-1.70
2017,03,19,05,53,-1.70
2017,03,19,05,54,-1.70
2017,03,19,05,55,-1.70
2017,03,19,05,56,-1.70
2017,03,19,05,57,-1.70
2017,03,19,05,58,-1.80
2017,03,19,05,59,-1.80
2017,03,19,06,00,-1.80
2017,03,19,06,01,-1.80
2017,03,19,06,02,-1.80
2017,03,19,06,03,-1.80
2017,03,19,06,04,-1.80
2017,03,19,06,05,-1.80
2017,03,19,06,06,-1.80
2017,03,19,06,07,-1.80
2017,03,19,06,08,-1.80
2017,03,19,06,09,-1.80
2017,03,19,06,10,-1.80
2017,03,19,06,11,-1.90
2017,03,19,06,12,-1.90
2017,03,19,06,13,-1.90
2017,03,19,06,14,-1.90
2017,03,19,06,15,-1.90
2017,03,19,06,16,-1.90
2017,03,19,06,17,-1.90
2017,03,19,06,18,-1.90
2017,03,19,06,19,-1.90
2017,03,19,06,20,-1.90
2017,03,19,06,21,-1.90
2017,03,19,06,22,-2.00
2017,03,19,06,23,-2.00
2017,03,19,06,24,-2.00
2017,03,19,06,25,-2.00
2017,03,19,06,26,-2.00
2017,03,19,06,27,-2.00
2017,03,19,06,28,-2.00
2017,03,19,06,29,-2.00
2017,03,19,06,30,-2.00
2017,03,19,06,31,-2.00
2017,03,19,06,32,-2.00
2017,03,19,06,33,-2.00
2017,03,19,06,34,-2.00
2017,03,19,06,35,-2.00
2017,03,19,06,36,-1.90
2017,03,19,06,37,-2.00
2017,03,19,06,38,-1.90
2017,03,19,06,39,-1.90
2017,03,19,06,40,-1.90
2017,03,19,06,41,-1.90
2017,03,19,06,42,-1.90
2017,03,19,06,43,-1.90
2017,03,19,06,44,-1.90
2017,03,19,06,45,-1.90
2017,03,19,06,46,-1.90
2017,03,19,06,47,-1.90
2017,03,19,06,48,-1.90
2017,03,19,06,49,-1.90
2017,03,19,06,50,-1.90
2017,03,19,06,51,-1.90
2017,03,19,06,52,-1.90
2017,03,19,06,53,-1.90
2017,03,19,06,54,-1.90
2017,03,19,06,55,-1.90
2017,03,19,06,56,-1.90
2017,03,19,06,57,-1.90
2017,03,19,06,58,-1.90
2017,03,19,06,59,-1.90
2017,03,19,07,00,-1.90
2017,03,19,07,01,-1.90
2017,03,19,07,02,-1.90
2017,03,19,07,03,-1.80
2017,03,19,07,04,-1.80
2017,03,19,07,05,-1.80
2017,03,19,07,06,-1.80
2017,03,19,07,07,-1.90
2017,03,19,07,08,-1.90
2017,03,19,07,09,-1.90
2017,03,19,07,10,-1.90
2017,03,19,07,11,-1.90
2017,03,19,07,12,-2.00
2017,03,19,07,13,-2.00
2017,03,19,07,14,-2.00
2017,03,19,07,15,-2.00
2017,03,19,07,16,-2.00
2017,03,19,07,17,-2.00
2017,03,19,07,18,-2.00
2017,03,19,07,19,-2.00
2017,03,19,07,20,-2.00
2017,03,19,07,21,-1.90
2017,03,19,07,22,-1.90
2017,03,19,07,23,-1.90
2017,03,19,07,24,-2.00
2017,03,19,07,25,-2.00
2017,03,19,07,26,-2.00
2017,03,19,07,27,-2.00
2017,03,19,07,28,-2.00
2017,03,19,07,29,-2.00
2017,03,19,07,30,-2.00
2017,03,19,07,31,-2.00
2017,03,19,07,32,-2.00
2017,03,19,07,33,-2.10
2017,03,19,07,34,-2.10
2017,03,19,07,35,-2.10
2017,03,19,07,36,-2.10
2017,03,19,07,37,-2.10
2017,03,19,07,38,-2.10
2017,03,19,07,39,-2.10
2017,03,19,07,40,-2.10
2017,03,19,07,41,-2.10
2017,03,19,07,42,-2.10
2017,03,19,07,43,-2.10
2017,03,19,07,44,-2.10
2017,03,19,07,45,-2.10
2017,03,19,07,46,-2.10
2017,03,19,07,47,-2.10
2017,03,19,07,48,-2.10
2017,03,19,07,49,-2.10
2017,03,19,07,50,-2.10
2017,03,19,07,51,-2.10
2017,03,19,07,52,-2.10
2017,03,19,07,53,-2.10
2017,03,19,07,54,-2.10
2017,03,19,07,55,-2.10
2017,03,19,07,56,-2.10
2017,03,19,07,57,-2.10
2017,03,19,07,58,-2.10
2017,03,19,07,59,-2.00
2017,03,19,08,00,-2.00
2017,03,19,08,01,-2.00
2017,03,19,08,02,-1.90
2017,03,19,08,03,-1.90
2017,03,19,08,04,-1.80
2017,03,19,08,05,-1.80
2017,03,19,08,06,-1.80
2017,03,19,08,07,-1.80
2017,03,19,08,08,-1.80
2017,03,19,08,09,-1.80
2017,03,19,08,10,-1.80
2017,03,19,08,11,-1.80
2017,03,19,08,12,-1.80
2017,03,19,08,13,-1.70
2017,03,19,08,14,-1.70
2017,03,19,08,15,-1.70
2017,03,19,08,16,-1.70
2017,03,19,08,17,-1.70
2017,03,19,08,18,-1.70
2017,03,19,08,19,-1.70
2017,03,19,08,20,-1.70
2017,03,19,08,21,-1.70
2017,03,19,08,22,-1.70
2017,03,19,08,23,-1.70
2017,03,19,08,24,-1.70
2017,03,19,08,25,-1.70
2017,03,19,08,26,-1.70
2017,03,19,08,27,-1.70
2017,03,19,08,28,-1.70
2017,03,19,08,29,-1.70
2017,03,19,08,30,-1.70
2017,03,19,08,31,-1.70
2017,03,19,08,32,-1.60
2017,03,19,08,33,-1.60
2017,03,19,08,34,-1.50
2017,03,19,08,35,-1.50
2017,03,19,08,36,-1.40
2017,03,19,08,37,-1.30
2017,03,19,08,38,-1.30
2017,03,19,08,39,-1.20
2017,03,19,08,40,-1.00
2017,03,19,08,41,-0.90
2017,03,19,08,42,-0.80
2017,03,19,08,43,-0.80
2017,03,19,08,44,-0.70
2017,03,19,08,45,-0.60
2017,03,19,08,46,-0.50
2017,03,19,08,47,-0.40
2017,03,19,08,48,-0.30
2017,03,19,08,49,-0.20
2017,03,19,08,50,-0.10
2017,03,19,08,51,0.00
2017,03,19,08,52,0.10
2017,03,19,08,53,0.20
2017,03,19,08,54,0.30
2017,03,19,08,55,0.30
2017,03,19,08,56,0.40
2017,03,19,08,57,0.50
2017,03,19,08,58,0.60
2017,03,19,08,59,0.70
2017,03,19,09,00,0.80
2017,03,19,09,01,0.90
2017,03,19,09,02,1.00
2017,03,19,09,03,1.10
2017,03,19,09,04,1.10
2017,03,19,09,05,1.30
2017,03,19,09,06,1.30
2017,03,19,09,07,1.40
2017,03,19,09,08,1.50
2017,03,19,09,09,1.60
2017,03,19,09,10,1.60
2017,03,19,09,11,1.70
2017,03,19,09,12,1.70
2017,03,19,09,13,1.80
2017,03,19,09,14,1.80
2017,03,19,09,15,1.80
2017,03,19,09,16,1.90
2017,03,19,09,17,1.90
2017,03,19,09,18,2.00
2017,03,19,09,19,2.00
2017,03,19,09,20,2.20
2017,03,19,09,21,2.30
2017,03,19,09,22,2.40
2017,03,19,09,23,2.50
2017,03,19,09,24,2.60
2017,03,19,09,25,2.60
2017,03,19,09,26,2.70
2017,03,19,09,27,2.80
2017,03,19,09,28,2.90
2017,03,19,09,29,3.00
2017,03,19,09,30,3.10
2017,03,19,09,31,3.20
2017,03,19,09,32,3.30
2017,03,19,09,33,3.40
2017,03,19,09,34,3.40
2017,03,19,09,35,3.50
2017,03,19,09,36,3.60
2017,03,19,09,37,3.70
2017,03,19,09,38,3.80
2017,03,19,09,39,3.80
2017,03,19,09,40,3.90
2017,03,19,09,41,3.90
2017,03,19,09,42,3.90
2017,03,19,09,43,3.90
2017,03,19,09,44,3.90
2017,03,19,09,45,3.90
2017,03,19,09,46,4.00
2017,03,19,09,47,4.00
2017,03,19,09,48,4.10
2017,03,19,09,49,4.10
2017,03,19,09,50,4.10
2017,03,19,09,51,4.20
2017,03,19,09,52,4.20
2017,03,19,09,53,4.20
2017,03,19,09,54,4.20
2017,03,19,09,55,4.20
2017,03,19,09,56,4.20
2017,03,19,09,57,4.20
2017,03,19,09,58,4.20
2017,03,19,09,59,4.20
2017,03,19,10,00,4.20
2017,03,19,10,01,4.20
2017,03,19,10,02,4.20
2017,03,19,10,03,4.30
2017,03,19,10,04,4.30
2017,03,19,10,05,4.40
2017,03,19,10,06,4.50
2017,03,19,10,07,4.60
2017,03,19,10,08,4.70
2017,03,19,10,09,4.80
2017,03,19,10,10,4.90
2017,03,19,10,11,4.90
2017,03,19,10,12,5.00
2017,03,19,10,13,5.00
2017,03,19,10,14,5.10
2017,03,19,10,15,5.20
2017,03,19,10,16,5.20
2017,03,19,10,17,5.20
2017,03,19,10,18,5.20
2017,03,19,10,19,5.20
2017,03,19,10,20,5.20
2017,03,19,10,21,5.20
2017,03,19,10,22,5.20
2017,03,19,10,23,5.10
2017,03,19,10,24,5.10
2017,03,19,10,25,5.10
2017,03,19,10,26,5.10
2017,03,19,10,27,5.10
2017,03,19,10,28,5.10
2017,03,19,10,29,5.10
2017,03,19,10,30,5.10
2017,03,19,10,31,5.10
2017,03,19,10,32,5.20
2017,03,19,10,33,5.20
2017,03,19,10,34,5.30
2017,03,19,10,35,5.30
2017,03,19,10,36,5.40
2017,03,19,10,37,5.40
2017,03,19,10,38,5.50
2017,03,19,10,39,5.50
2017,03,19,10,40,5.50
2017,03,19,10,41,5.50
2017,03,19,10,42,5.50
2017,03,19,10,43,5.50
2017,03,19,10,44,5.60
2017,03,19,10,45,5.60
2017,03,19,10,46,5.60
2017,03,19,10,47,5.60
2017,03,19,10,48,5.60
2017,03,19,10,49,5.60
2017,03,19,10,50,5.50
2017,03,19,10,51,5.50
2017,03,19,10,52,5.50
2017,03,19,10,53,5.50
2017,03,19,10,54,5.50
2017,03,19,10,55,5.50
2017,03,19,10,56,5.50
2017,03,19,10,57,5.50
2017,03,19,10,58,5.50
2017,03,19,10,59,5.60
2017,03,19,11,00,5.60
2017,03,19,11,01,5.50
2017,03,19,11,02,5.60
2017,03,19,11,03,5.60
2017,03,19,11,04,5.60
2017,03,19,11,05,5.70
2017,03,19,11,06,5.80
2017,03,19,11,07,5.80
2017,03,19,11,08,5.90
2017,03,19,11,09,5.90
2017,03,19,11,10,6.00
2017,03,19,11,11,6.00
2017,03,19,11,12,6.00
2017,03,19,11,13,6.10
2017,03,19,11,14,6.10
2017,03,19,11,15,6.10
2017,03,19,11,16,6.00
2017,03,19,11,17,5.90
2017,03,19,11,18,5.90
2017,03,19,11,19,5.90
2017,03,19,11,20,5.90
2017,03,19,11,21,5.90
2017,03,19,11,22,6.00
2017,03,19,11,23,6.10
2017,03,19,11,24,6.10
2017,03,19,11,25,6.00
2017,03,19,11,26,6.00
2017,03,19,11,27,5.90
2017,03,19,11,28,5.90
2017,03,19,11,29,5.90
2017,03,19,11,30,5.90
2017,03,19,11,31,6.00
2017,03,19,11,32,6.00
2017,03,19,11,33,6.10
2017,03,19,11,34,6.00
2017,03,19,11,35,6.00
2017,03,19,11,36,6.00
2017,03,19,11,37,6.00
2017,03,19,11,38,5.90
2017,03,19,11,39,5.90
2017,03,19,11,40,5.90
2017,03,19,11,41,5.90
2017,03,19,11,42,6.00
2017,03,19,11,43,6.00
2017,03,19,11,44,6.10
2017,03,19,11,45,6.10
2017,03,19,11,46,6.10
2017,03,19,11,47,6.00
2017,03,19,11,48,5.90
2017,03,19,11,49,5.90
2017,03,19,11,50,5.80
2017,03,19,11,51,5.80
2017,03,19,11,52,5.80
2017,03,19,11,53,5.80
2017,03,19,11,54,5.80
2017,03,19,11,55,5.90
2017,03,19,11,56,5.90
2017,03,19,11,57,6.00
2017,03,19,11,58,6.00
2017,03,19,11,59,6.10
2017,03,19,12,00,6.10
2017,03,19,12,01,6.10
2017,03,19,12,02,6.10
2017,03,19,12,03,6.00
2017,03,19,12,04,6.00
2017,03,19,12,05,5.90
2017,03,19,12,06,5.90
2017,03,19,12,07,5.90
2017,03,19,12,08,5.90
2017,03,19,12,09,6.00
2017,03,19,12,10,6.10
2017,03,19,12,11,6.10
2017,03,19,12,12,6.10
2017,03,19,12,13,6.10
2017,03,19,12,14,6.20
2017,03,19,12,15,6.30
2017,03,19,12,16,6.30
2017,03,19,12,17,6.30
2017,03,19,12,18,6.40
2017,03,19,12,19,6.40
2017,03,19,12,20,6.40
2017,03,19,12,21,6.40
2017,03,19,12,22,6.40
2017,03,19,12,23,6.40
2017,03,19,12,24,6.40
2017,03,19,12,25,6.50
2017,03,19,12,26,6.50
2017,03,19,12,27,6.50
2017,03,19,12,28,6.50
2017,03,19,12,29,6.50
2017,03,19,12,30,6.60
2017,03,19,12,31,6.60
2017,03,19,12,32,6.60
2017,03,19,12,33,6.60
2017,03,19,12,34,6.60
2017,03,19,12,35,6.60
2017,03,19,12,36,6.70
2017,03,19,12,37,6.70
2017,03,19,12,38,6.70
2017,03,19,12,39,6.70
2017,03,19,12,40,6.70
2017,03,19,12,41,6.60
2017,03,19,12,42,6.60
2017,03,19,12,43,6.60
2017,03,19,12,44,6.60
2017,03,19,12,45,6.60
2017,03,19,12,46,6.60
2017,03,19,12,47,6.60
2017,03,19,12,48,6.60
2017,03,19,12,49,6.70
2017,03,19,12,50,6.70
2017,03,19,12,51,6.70
2017,03,19,12,52,6.70
2017,03,19,12,53,6.70
2017,03,19,12,54,6.70
2017,03,19,12,55,6.70
2017,03,19,12,56,6.60
2017,03,19,12,57,6.60
2017,03,19,12,58,6.60
2017,03,19,12,59,6.60
2017,03,19,13,00,6.60
2017,03,19,13,01,6.60
2017,03,19,13,02,6.60
2017,03,19,13,03,6.70
2017,03,19,13,04,6.70
2017,03,19,13,05,6.60
2017,03,19,13,06,6.60
2017,03,19,13,07,6.70
2017,03,19,13,08,6.70
2017,03,19,13,09,6.80
2017,03,19,13,10,6.80
2017,03,19,13,11,6.80
2017,03,19,13,12,6.90
2017,03,19,13,13,6.90
2017,03,19,13,14,6.90
2017,03,19,13,15,7.00
2017,03,19,13,16,7.10
2017,03,19,13,17,7.20
2017,03,19,13,18,7.20
2017,03,19,13,19,7.30
2017,03,19,13,20,7.40
2017,03,19,13,21,7.40
2017,03,19,13,22,7.40
2017,03,19,13,23,7.40
2017,03,19,13,24,7.40
2017,03,19,13,25,7.40
2017,03,19,13,26,7.30
2017,03,19,13,27,7.20
2017,03,19,13,28,7.20
2017,03,19,13,29,7.20
2017,03,19,13,30,7.10
2017,03,19,13,31,7.10
2017,03,19,13,32,7.10
2017,03,19,13,33,7.10
2017,03,19,13,34,7.20
2017,03,19,13,35,7.20
2017,03,19,13,36,7.20
2017,03,19,13,37,7.20
2017,03,19,13,38,7.30
2017,03,19,13,39,7.30
2017,03,19,13,40,7.30
2017,03,19,13,41,7.40
2017,03,19,13,42,7.40
2017,03,19,13,43,7.40
2017,03,19,13,44,7.30
2017,03,19,13,45,7.30
2017,03,19,13,46,7.20
2017,03,19,13,47,7.20
2017,03,19,13,48,7.10
2017,03,19,13,49,7.10
2017,03,19,13,50,7.10
2017,03,19,13,51,7.10
2017,03,19,13,52,7.20
2017,03,19,13,53,7.20
2017,03,19,13,54,7.20
2017,03,19,13,55,7.20
2017,03,19,13,56,7.10
2017,03,19,13,57,7.10
2017,03,19,13,58,7.00
2017,03,19,13,59,7.00
2017,03,19,14,00,7.00
2017,03,19,14,01,7.00
2017,03,19,14,02,7.00
2017,03,19,14,03,7.10
2017,03,19,14,04,7.20
2017,03,19,14,05,7.20
2017,03,19,14,06,7.30
2017,03,19,14,07,7.30
2017,03,19,14,08,7.30
2017,03,19,14,09,7.20
2017,03,19,14,10,7.20
2017,03,19,14,11,7.20
2017,03,19,14,12,7.20
2017,03,19,14,13,7.20
2017,03,19,14,14,7.20
2017,03,19,14,15,7.30
2017,03,19,14,16,7.30
2017,03,19,14,17,7.30
2017,03,19,14,18,7.30
2017,03,19,14,19,7.20
2017,03,19,14,20,7.20
2017,03,19,14,21,7.20
2017,03,19,14,22,7.20
2017,03,19,14,23,7.20
2017,03,19,14,24,7.30
2017,03,19,14,25,7.30
2017,03,19,14,26,7.40
2017,03,19,14,27,7.40
2017,03,19,14,28,7.40
2017,03,19,14,29,7.40
2017,03,19,14,30,7.40
2017,03,19,14,31,7.40
2017,03,19,14,32,7.40
2017,03,19,14,33,7.40
2017,03,19,14,34,7.40
2017,03,19,14,35,7.40
2017,03,19,14,36,7.40
2017,03,19,14,37,7.40
2017,03,19,14,38,7.40
2017,03,19,14,39,7.40
2017,03,19,14,40,7.30
2017,03,19,14,41,7.30
2017,03,19,14,42,7.30
2017,03,19,14,43,7.30
2017,03,19,14,44,7.40
2017,03,19,14,45,7.40
2017,03,19,14,46,7.40
2017,03,19,14,47,7.50
2017,03,19,14,48,7.60
2017,03,19,14,49,7.60
2017,03,19,14,50,7.70
2017,03,19,14,51,7.70
2017,03,19,14,52,7.80
2017,03,19,14,53,7.80
2017,03,19,14,54,7.80
2017,03,19,14,55,7.80
2017,03,19,14,56,7.80
2017,03,19,14,57,7.90
2017,03,19,14,58,7.90
2017,03,19,14,59,7.90
2017,03,19,15,00,7.90
2017,03,19,15,01,7.90
2017,03,19,15,02,7.90
2017,03,19,15,03,7.90
2017,03,19,15,04,7.80
2017,03,19,15,05,7.80
2017,03,19,15,06,7.80
2017,03,19,15,07,7.70
2017,03,19,15,08,7.70
2017,03,19,15,09,7.70
2017,03,19,15,10,7.70
2017,03,19,15,11,7.80
2017,03,19,15,12,7.80
2017,03,19,15,13,7.80
2017,03,19,15,14,7.90
2017,03,19,15,15,8.00
2017,03,19,15,16,8.10
2017,03,19,15,17,8.20
2017,03,19,15,18,8.30
2017,03,19,15,19,8.30
2017,03,19,15,20,8.30
2017,03,19,15,21,8.30
2017,03,19,15,22,8.30
2017,03,19,15,23,8.30
2017,03,19,15,24,8.20
2017,03,19,15,25,8.10
2017,03,19,15,26,8.00
2017,03,19,15,27,7.90
2017,03,19,15,28,7.80
2017,03,19,15,29,7.80
2017,03,19,15,30,7.70
2017,03,19,15,31,7.60
2017,03,19,15,32,7.60
2017,03,19,15,33,7.60
2017,03,19,15,34,7.60
2017,03,19,15,35,7.60
2017,03,19,15,36,7.60
2017,03,19,15,37,7.70
2017,03,19,15,38,7.70
2017,03,19,15,39,7.70
2017,03,19,15,40,7.70
2017,03,19,15,41,7.70
2017,03,19,15,42,7.60
2017,03,19,15,43,7.60
2017,03,19,15,44,7.50
2017,03,19,15,45,7.50
2017,03,19,15,46,7.50
2017,03,19,15,47,7.50
2017,03,19,15,48,7.40
2017,03,19,15,49,7.40
2017,03,19,15,50,7.40
2017,03,19,15,51,7.50
2017,03,19,15,52,7.50
2017,03,19,15,53,7.50
2017,03,19,15,54,7.50
2017,03,19,15,55,7.50
2017,03,19,15,56,7.50
2017,03,19,15,57,7.60
2017,03,19,15,58,7.70
2017,03,19,15,59,7.70
2017,03,19,16,00,7.70
2017,03,19,16,01,7.70
2017,03,19,16,02,7.70
2017,03,19,16,03,7.70
2017,03,19,16,04,7.70
2017,03,19,16,05,7.70
2017,03,19,16,06,7.60
2017,03,19,16,07,7.60
2017,03,19,16,08,7.60
2017,03,19,16,09,7.60
2017,03,19,16,10,7.50
2017,03,19,16,11,7.50
2017,03,19,16,12,7.50
2017,03,19,16,13,7.50
2017,03,19,16,14,7.50
2017,03,19,16,15,7.50
2017,03,19,16,16,7.60
2017,03,19,16,17,7.60
2017,03,19,16,18,7.60
2017,03,19,16,19,7.70
2017,03,19,16,20,7.70
2017,03,19,16,21,7.70
2017,03,19,16,22,7.70
2017,03,19,16,23,7.80
2017,03,19,16,24,7.80
2017,03,19,16,25,7.80
2017,03,19,16,26,7.80
2017,03,19,16,27,7.70
2017,03,19,16,28,7.70
2017,03,19,16,29,7.80
2017,03,19,16,30,7.80
2017,03,19,16,31,7.80
2017,03,19,16,32,7.80
2017,03,19,16,33,7.80
2017,03,19,16,34,7.80
2017,03,19,16,35,7.80
2017,03,19,16,36,7.80
2017,03,19,16,37,7.80
2017,03,19,16,38,7.80
2017,03,19,16,39,7.80
2017,03,19,16,40,7.70
2017,03,19,16,41,7.70
2017,03,19,16,42,7.70
2017,03,19,16,43,7.70
2017,03,19,16,44,7.60
2017,03,19,16,45,7.60
2017,03,19,16,46,7.60
2017,03,19,16,47,7.70
2017,03,19,16,48,7.70
2017,03,19,16,49,7.70
2017,03,19,16,50,7.70
2017,03,19,16,51,7.80
2017,03,19,16,52,7.90
2017,03,19,16,53,7.90
2017,03,19,16,54,7.90
2017,03,19,16,55,8.00
2017,03,19,16,56,8.00
2017,03,19,16,57,7.90
2017,03,19,16,58,7.90
2017,03,19,16,59,7.90
2017,03,19,17,00,7.90
2017,03,19,17,01,8.00
2017,03,19,17,02,7.90
2017,03,19,17,03,7.90
2017,03,19,17,04,8.00
2017,03,19,17,05,8.00
2017,03,19,17,06,8.10
2017,03,19,17,07,8.10
2017,03,19,17,08,8.10
2017,03,19,17,09,8.10
2017,03,19,17,10,8.10
2017,03,19,17,11,8.00
2017,03,19,17,12,8.00
2017,03,19,17,13,8.00
2017,03,19,17,14,7.90
2017,03,19,17,15,7.90
2017,03,19,17,16,7.90
2017,03,19,17,17,7.90
2017,03,19,17,18,7.90
2017,03,19,17,19,7.90
2017,03,19,17,20,7.90
2017,03,19,17,21,7.80
2017,03,19,17,22,7.90
2017,03,19,17,23,7.90
2017,03,19,17,24,7.90
2017,03,19,17,25,7.90
2017,03,19,17,26,7.90
2017,03,19,17,27,8.00
2017,03,19,17,28,8.00
2017,03,19,17,29,8.10
2017,03,19,17,30,8.10
2017,03,19,17,31,8.10
2017,03,19,17,32,8.10
2017,03,19,17,33,8.20
2017,03,19,17,34,8.20
2017,03,19,17,35,8.20
2017,03,19,17,36,8.20
2017,03,19,17,37,8.20
2017,03,19,17,38,8.20
2017,03,19,17,39,8.20
2017,03,19,17,40,8.10
2017,03,19,17,41,8.10
2017,03,19,17,42,8.00
2017,03,19,17,43,7.90
2017,03,19,17,44,7.90
2017,03,19,17,45,7.90
2017,03,19,17,46,7.90
2017,03,19,17,47,7.80